Wind_Speed
9 8 8 8 8 8 9 9 9 9 9 9 9 9 8 8 8 8 7 7 6 6 5 5 5 5 5 5 5 5 5 5 6 6 6 6 7 7 7 7 7 8 7
7 7 6 6 7 8 8 8 8 8 9 9 9 9 8 8 8 8 7 7 6 6 6 5 6 6 6 6 5 5 5 5 5 6 6 6 6 6 7 7 7 7 7
7 6 5 5 6 6 7 7 8 8 8 9 9 8 8 8 8 7 7 7 6 7 6 6 5 6 5 5 5 5 4 4 5 5 6 6 6 6 7 7 7 7 7
7 5 4 4 4 5 6 7 8 8 8 8 8 8 7 7 7 7 8 8 7 7 7 6 6 6 5 5 5 5 4 4 5 6 7 7 6 6 6 6 6 6 6
6 5 4 3 4 4 5 6 7 7 8 8 8 7 7 7 7 7 8 8 8 7 7 6 6 6 6 5 5 5 4 4 6 7 7 6 6 6 6 6 6 6 5
6 5 4 3 3 4 4 5 6 6 7 7 7 7 7 7 7 8 8 7 7 7 7 7 7 7 6 6 5 5 5 5 6 7 6 6 6 5 6 6 6 5 5
6 5 4 3 3 3 4 4 5 5 6 7 7 7 7 7 8 7 7 7 7 7 6 6 6 6 6 6 5 6 6 6 6 6 6 6 5 4 5 6 5 5 5
6 4 3 3 2 3 3 4 5 5 5 6 7 7 7 7 7 7 7 7 6 6 6 6 6 6 6 5 5 6 6 7 6 6 6 5 5 5 5 6 5 5 5
6 5 4 3 2 2 3 3 4 5 5 6 6 6 7 7 6 6 6 6 5 6 6 7 6 6 6 6 6 6 6 6 6 6 6 6 6 6 7 6 5 5 5
7 6 4 3 2 2 3 3 4 4 5 5 5 6 6 6 6 6 6 6 6 7 7 7 6 6 6 7 7 7 7 6 6 6 6 6 6 7 7 6 5 5 5
8 6 5 4 2 1 2 3 3 4 4 5 5 5 5 6 6 6 7 7 7 7 7 7 7 7 6 7 7 7 7 6 7 6 6 6 6 6 6 6 5 4 4
9 8 6 4 3 1 1 2 3 4 4 4 4 4 5 6 6 6 6 7 7 7 7 7 7 7 7 7 7 7 7 6 7 6 6 6 6 5 5 5 5 3 3
8 8 7 6 4 1 1 2 3 3 3 3 3 4 4 5 5 6 6 7 6 7 7 7 7 7 7 6 6 6 6 6 6 6 6 5 5 4 4 4 4 3 2
8 7 7 5 4 1 1 2 3 3 3 4 3 3 4 4 5 5 5 5 6 6 6 6 6 6 6 6 6 6 6 5 5 5 4 4 4 3 3 3 2 2 1
9 8 7 5 3 1 1 1 2 3 3 3 3 3 3 4 4 5 5 5 6 6 6 6 6 5 5 5 5 5 5 4 4 3 3 3 3 3 2 2 2 1 0
9 8 7 6 4 2 1 2 2 3 3 3 3 3 4 4 5 5 5 5 5 5 5 5 5 5 4 4 4 4 4 4 3 3 2 2 1 1 2 2 1 1 1
9 8 8 7 5 3 1 1 2 3 3 3 3 4 4 4 5 5 6 5 5 4 4 4 4 3 3 2 2 2 2 2 2 2 1 1 0 1 1 2 2 2 2
9 8 8 8 6 4 2 1 3 3 4 3 4 4 4 4 5 5 6 5 5 5 4 4 3 3 2 2 2 1 1 1 1 0 1 1 2 2 2 2 3 3 4
10 9 9 8 6 5 3 2 2 3 4 4 4 5 5 5 5 5 6 6 5 5 4 3 3 2 2 2 1 1 1 1 1 2 2 2 3 3 3 4 4 5 5
12 10 10 9 7 6 4 2 1 2 3 4 4 5 5 5 5 5 6 6 6 5 5 4 3 3 3 3 2 2 2 2 3 3 3 4 4 5 5 5 6 6 7
12 11 11 10 8 7 5 3 1 2 4 4 4 5 5 6 6 6 6 6 7 6 5 5 5 4 4 4 4 4 4 4 4 5 5 6 7 7 7 8 8 9 9
13 12 11 11 10 7 5 3 2 2 4 4 4 5 6 6 6 6 7 7 7 7 7 6 6 5 5 5 5 6 6 6 6 7 7 8 8 9 9 10 11 11 12
14 13 11 11 10 8 5 3 3 2 3 4 4 5 6 6 6 6 7 7 8 8 8 7 7 6 6 6 7 7 8 8 8 8 9 9 10 11 12 12 13 13 14
14 14 11 10 9 8 6 4 3 2 2 3 4 5 6 6 6 6 7 7 8 8 9 9 8 8 8 8 8 8 9 9 10 10 11 11 12 13 13 14 15 15 15
14 13 11 9 8 8 7 5 3 1 2 2 3 5 6 7 7 7 7 7 8 8 9 9 9 9 9 9 9 10 11 11 12 12 13 14 14 15 15 16 16 17 17
14 12 10 8 8 7 6 5 4 3 3 3 4 5 5 6 7 7 7 7 8 8 9 10 11 11 11 11 11 12 12 13 13 14 14 15 16 16 16 17 17 17 18
Wind_Direction
90 91 89 94 98 100 104 107 109 109 107 107 103 99 94 92 91 92 94 95 95 95 97 100 112 108 106 107 110 117 123 129 134 132 132 135 132 134 138 135 135 131 127
87 91 90 95 98 103 108 111 112 112 110 107 104 101 96 95 96 95 96 96 96 97 97 98 99 103 105 104 108 116 123 127 130 133 134 136 132 130 132 130 129 128 128
82 86 89 94 102 108 111 114 117 115 112 108 106 105 101 100 102 102 97 93 94 95 96 96 98 100 106 105 106 112 121 123 137 143 140 135 132 130 128 124 124 129 131
77 79 86 94 104 109 109 113 118 117 114 111 111 110 105 103 106 103 98 94 94 94 91 90 94 99 105 112 109 111 117 124 133 138 134 131 131 129 126 126 125 130 135
71 71 77 89 103 110 111 112 116 116 114 113 113 113 108 104 105 104 97 95 95 96 94 90 90 94 102 110 111 109 115 121 131 136 133 130 130 126 128 128 129 135 138
65 66 74 87 101 107 109 112 116 116 116 113 113 115 113 110 107 103 97 95 96 95 94 93 92 90 92 98 104 103 106 111 122 125 123 122 121 126 131 133 134 135 139
60 61 67 82 100 107 110 114 118 116 115 115 117 119 117 115 112 106 100 100 100 96 95 94 86 88 89 93 96 102 107 109 111 113 122 122 121 128 137 135 137 136 138
53 53 59 67 91 109 116 119 122 118 118 119 118 124 120 113 109 107 101 102 101 98 94 90 89 89 94 94 98 104 105 105 107 111 115 118 118 122 131 132 132 132 135
49 45 47 54 62 115 125 125 126 126 126 124 121 120 120 117 113 110 109 109 106 103 98 92 88 94 97 97 98 104 104 104 108 114 114 113 108 117 122 125 122 128 134
45 42 39 37 56 112 129 128 129 132 133 130 126 123 120 119 118 112 113 112 106 103 103 96 93 97 97 98 99 101 101 103 107 109 115 115 115 118 121 123 123 126 129
40 37 31 28 38 99 126 133 137 141 141 137 131 129 126 123 123 117 112 109 105 105 105 98 96 99 99 100 100 103 100 103 107 112 116 120 119 117 121 125 127 129 128
34 30 24 26 25 70 130 146 151 152 148 143 134 129 130 130 127 122 116 108 106 105 106 102 99 100 101 102 102 104 100 99 108 112 115 122 122 120 121 123 126 135 144
28 25 22 23 17 28 151 161 160 158 162 157 146 131 133 135 130 125 118 111 108 107 109 105 100 101 102 103 104 104 99 100 107 113 117 120 126 126 124 119 116 115 124
24 20 18 16 9 350 170 168 169 166 168 170 161 154 148 146 138 131 127 119 114 112 111 106 103 102 103 106 107 105 104 103 108 115 118 125 132 134 134 129 127 119 122
17 15 14 10 2 355 176 171 173 175 169 178 174 163 166 158 150 141 137 133 126 123 119 113 110 106 105 107 111 109 107 105 103 107 115 119 127 135 144 147 141 147 199
10 11 11 14 18 43 131 168 172 180 176 171 176 170 168 165 159 152 144 143 139 137 131 124 120 115 109 104 111 113 106 99 103 112 119 118 123 144 162 174 194 223 258
11 11 10 12 15 24 19 218 197 190 175 166 174 171 172 172 166 165 160 151 151 152 144 136 132 127 121 115 117 120 112 97 108 123 139 139 181 202 205 215 232 245 264
6 5 5 4 4 357 342 292 208 195 194 191 188 183 184 184 178 171 172 165 164 163 163 160 158 150 145 139 124 132 135 137 141 204 235 256 259 256 252 254 261 263 266
3 1 1 359 355 355 347 314 226 189 195 195 194 194 191 189 184 179 182 182 182 183 184 181 180 182 184 184 188 190 205 228 251 263 257 261 264 264 265 267 272 270 267
5 2 1 359 356 352 351 338 258 207 204 198 196 203 197 196 191 193 196 200 203 204 206 207 211 215 215 219 234 251 256 267 272 273 267 264 268 271 270 272 276 276 272
2 0 358 355 352 351 342 335 291 227 213 209 208 210 204 205 204 207 211 211 213 215 218 221 225 230 236 238 247 256 263 269 271 275 275 271 270 271 273 275 277 279 278
0 355 353 354 356 355 344 316 289 252 223 213 214 215 211 211 213 212 216 219 219 221 223 224 229 236 241 247 251 256 261 265 270 275 278 278 277 277 277 278 279 281 281
357 355 352 354 355 356 352 321 285 269 237 226 228 217 211 217 222 224 228 229 231 232 232 231 234 239 248 256 258 261 264 265 271 275 277 279 279 279 280 280 280 281 281
353 354 350 351 354 356 0 349 316 264 248 236 233 225 223 227 230 234 238 240 240 240 239 239 239 243 249 257 262 267 269 270 273 276 278 280 282 282 283 281 281 281 282
351 350 350 351 353 352 353 356 344 290 252 244 241 233 233 234 239 246 249 247 246 244 243 242 245 249 254 258 263 268 270 273 274 275 277 279 282 283 283 283 283 282 282
350 350 352 352 353 351 350 351 340 311 281 263 255 245 245 244 248 252 253 252 250 249 250 251 254 258 262 264 266 269 271 273 275 276 278 279 282 285 285 284 286 286 283
Height
5897 5896 5896 5896 5895 5895 5894 5894 5894 5894 5894 5894 5894 5894 5894 5894 5894 5894 5894 5894 5894 5894 5894 5894 5894 5894 5894 5894 5895 5895 5895 5895 5896 5896 5897 5897 5897 5897 5897 5898 5898 5899 5899
5898 5897 5897 5897 5896 5896 5896 5895 5895 5895 5895 5895 5895 5895 5895 5895 5895 5895 5895 5895 5895 5894 5894 5894 5894 5894 5895 5895 5896 5896 5896 5896 5896 5897 5897 5897 5898 5898 5898 5899 5899 5900 5900
5899 5898 5898 5898 5898 5897 5897 5896 5896 5896 5896 5896 5895 5895 5895 5895 5895 5895 5895 5895 5895 5895 5895 5895 5895 5895 5896 5896 5896 5897 5897 5897 5897 5897 5898 5898 5898 5899 5899 5900 5900 5901 5901
5900 5899 5899 5899 5899 5898 5898 5898 5897 5897 5897 5897 5896 5896 5896 5896 5896 5896 5896 5896 5896 5896 5896 5896 5896 5896 5896 5897 5897 5897 5897 5897 5897 5898 5898 5899 5899 5899 5900 5901 5901 5902 5902
5900 5900 5900 5899 5899 5899 5899 5899 5898 5898 5898 5897 5897 5897 5897 5897 5897 5897 5897 5897 5897 5897 5897 5897 5897 5897 5897 5897 5898 5898 5898 5898 5898 5898 5899 5899 5900 5900 5901 5902 5902 5903 5903
5901 5901 5900 5900 5900 5900 5899 5899 5899 5898 5898 5898 5898 5898 5898 5898 5898 5898 5898 5898 5898 5898 5898 5898 5898 5898 5898 5898 5898 5899 5899 5899 5899 5899 5899 5900 5901 5901 5902 5902 5903 5904 5904
5902 5901 5901 5900 5900 5900 5900 5900 5899 5899 5899 5899 5899 5899 5899 5899 5899 5899 5899 5899 5899 5899 5899 5899 5899 5899 5899 5899 5899 5899 5900 5900 5900 5900 5900 5901 5902 5902 5902 5903 5904 5904 5905
5902 5902 5901 5901 5901 5900 5900 5900 5900 5900 5900 5900 5899 5900 5899 5899 5900 5900 5900 5900 5900 5900 5900 5900 5900 5900 5900 5900 5900 5900 5901 5901 5901 5901 5901 5902 5902 5902 5903 5903 5904 5905 5905
5903 5902 5902 5901 5901 5901 5901 5901 5900 5900 5900 5900 5900 5900 5900 5900 5900 5901 5901 5901 5901 5901 5901 5900 5901 5901 5901 5901 5901 5902 5902 5902 5902 5902 5902 5903 5903 5903 5903 5904 5905 5906 5906
5904 5903 5902 5902 5901 5901 5901 5901 5901 5901 5901 5901 5901 5901 5901 5901 5901 5901 5901 5902 5902 5902 5901 5902 5902 5902 5902 5902 5903 5903 5903 5903 5903 5903 5903 5904 5904 5904 5905 5905 5906 5906 5907
5905 5904 5903 5902 5902 5901 5901 5901 5901 5901 5901 5901 5901 5901 5902 5902 5902 5902 5902 5902 5902 5902 5902 5903 5903 5903 5903 5903 5903 5903 5904 5904 5904 5904 5904 5905 5905 5905 5906 5906 5907 5907 5907
5906 5905 5903 5903 5902 5901 5901 5901 5901 5901 5901 5902 5902 5902 5902 5902 5902 5902 5902 5903 5903 5903 5904 5904 5904 5904 5904 5904 5904 5904 5904 5904 5904 5905 5905 5906 5906 5906 5907 5907 5907 5908 5908
5907 5905 5904 5903 5902 5901 5901 5901 5901 5901 5901 5902 5902 5902 5902 5902 5903 5903 5903 5903 5904 5904 5904 5905 5905 5905 5905 5905 5906 5906 5905 5905 5906 5906 5906 5906 5907 5907 5907 5908 5908 5908 5908
5907 5906 5904 5903 5902 5901 5901 5901 5901 5901 5901 5902 5902 5902 5903 5903 5903 5903 5904 5904 5904 5905 5905 5905 5906 5906 5906 5906 5906 5906 5906 5907 5907 5907 5907 5907 5908 5908 5908 5908 5908 5908 5909
5908 5906 5904 5903 5902 5901 5901 5901 5901 5901 5901 5902 5902 5902 5903 5903 5903 5904 5904 5905 5905 5905 5906 5906 5907 5907 5907 5907 5907 5907 5907 5907 5908 5908 5908 5908 5908 5908 5908 5908 5908 5909 5908
5908 5906 5905 5903 5901 5901 5900 5901 5901 5901 5901 5901 5902 5902 5902 5903 5903 5904 5905 5905 5905 5906 5906 5907 5907 5907 5908 5908 5908 5908 5908 5908 5908 5908 5908 5908 5908 5908 5908 5908 5908 5908 5908
5908 5906 5905 5903 5902 5901 5900 5900 5900 5901 5901 5901 5902 5902 5902 5903 5903 5904 5905 5905 5906 5906 5907 5907 5907 5908 5908 5908 5908 5908 5908 5908 5908 5909 5909 5908 5908 5908 5908 5908 5908 5908 5908
5908 5906 5905 5903 5902 5901 5900 5899 5900 5900 5900 5901 5901 5902 5902 5903 5903 5904 5905 5905 5906 5906 5907 5907 5908 5908 5908 5908 5909 5908 5908 5908 5909 5909 5909 5908 5908 5908 5908 5908 5908 5908 5907
5908 5906 5905 5903 5902 5901 5900 5899 5899 5899 5900 5900 5900 5901 5902 5902 5903 5904 5904 5905 5906 5906 5907 5907 5908 5908 5908 5908 5908 5908 5908 5908 5908 5908 5908 5908 5908 5908 5907 5907 5907 5907 5906
5908 5906 5905 5903 5901 5900 5899 5899 5898 5898 5899 5899 5900 5900 5901 5902 5902 5903 5904 5904 5905 5906 5906 5907 5907 5907 5907 5908 5908 5908 5908 5908 5908 5908 5907 5907 5907 5907 5907 5906 5906 5905 5905
5908 5906 5904 5903 5901 5900 5899 5898 5898 5898 5898 5899 5899 5900 5900 5901 5902 5902 5903 5904 5904 5905 5905 5906 5906 5906 5907 5907 5907 5907 5907 5907 5907 5907 5906 5906 5906 5906 5905 5905 5905 5904 5903
5908 5906 5904 5902 5900 5899 5898 5898 5898 5897 5898 5898 5898 5899 5899 5900 5901 5901 5902 5903 5903 5904 5904 5905 5905 5906 5906 5906 5906 5906 5906 5907 5906 5905 5905 5905 5904 5904 5903 5903 5902 5902 5901
5908 5906 5903 5902 5900 5899 5898 5897 5897 5897 5897 5897 5897 5898 5898 5899 5900 5900 5901 5901 5902 5902 5903 5903 5904 5904 5905 5905 5905 5905 5905 5905 5904 5904 5903 5903 5902 5902 5901 5901 5900 5899 5898
5908 5906 5903 5901 5900 5898 5897 5896 5896 5896 5896 5896 5897 5897 5897 5898 5899 5899 5900 5900 5900 5901 5902 5902 5902 5902 5903 5903 5903 5903 5903 5903 5902 5902 5901 5901 5900 5899 5898 5898 5897 5896 5895
5908 5906 5903 5901 5900 5898 5897 5896 5896 5896 5895 5895 5896 5896 5896 5897 5897 5898 5898 5898 5899 5899 5900 5900 5900 5901 5901 5901 5901 5901 5901 5900 5899 5899 5899 5898 5897 5896 5895 5894 5893 5892 5891
5908 5905 5903 5901 5900 5898 5897 5896 5896 5895 5895 5895 5895 5895 5895 5895 5896 5896 5896 5896 5897 5897 5898 5898 5898 5898 5899 5899 5898 5898 5898 5897 5897 5896 5895 5894 5893 5892 5891 5890 5889 5888 5887